Flag Weather past 2 weeks in Barranquilla, Colombia

Now
82 °F

Passing clouds.


Feels Like: 92 °F
Forecast: 80 / 88 °F
Wind: 7 mph from Northeast

Location: Barranquilla / Ernestocortissoz

Current Time: Nov 25, 2014 at 10:03:39 PM

Latest Report: Nov 25, 2014 at 9:00 PM


Visibility: N/A

Pressure: 29.82 "Hg

Humidity: 89%

Dew point: 79 °F

Location of BarranquillaLocation

Historic Weather in Barranquilla — Graph

°F

Barranquilla temperature yesterday

Maximum temperature yesterday: 93 °F (at 2:00 PM)
Minimum temperature yesterday: 79 °F (at 1:00 AM)
Average temperature yesterday: 84 °F

Past Weeks' High & Low Weather Summary

 TemperatureHumidityPressure
High93 °F (Nov 16, 12:00 PM)100% (Nov 11, 12:00 AM)29.95 "Hg (Nov 11, 12:00 AM)
Low73 °F (Nov 14, 3:00 AM)59% (Nov 21, 3:00 AM)29.73 "Hg (Nov 23, 4:00 PM)
Average82 °F88%29.84 "Hg
* Reported Nov 10 9:00 PM — Nov 25 9:00 PM, Barranquilla, Weather by CustomWeather, © 2014

Note: Actual official high and low records may vary slightly from our data, if they occured in-between our weather recording intervals... More about our weather records

Advertising

Barranquilla weather history for previous 24 hours

 ConditionsComfort  
Time TempWeatherWind HumidityBarometerVisibility
9:00 PM
Nov 25
82 °FPassing clouds.7 mph89%29.82 "HgN/A
8:00 PM82 °FPassing clouds.5 mph89%29.82 "HgN/A
7:00 PM82 °FPassing clouds.10 mph89%29.78 "HgN/A
6:00 PM82 °FPassing clouds.5 mph89%29.77 "HgN/A
5:00 PM84 °FBroken clouds.7 mph84%29.76 "HgN/A
4:00 PM86 °FBroken clouds.5 mph79%29.75 "HgN/A
3:00 PM88 °FBroken clouds.7 mph79%29.75 "HgN/A
1:00 PM90 °FScattered clouds.12 mph75%29.79 "HgN/A
12:00 PM88 °FScattered clouds.5 mph75%29.81 "HgN/A
11:00 AM90 °FScattered clouds.5 mph75%29.82 "HgN/A
10:00 AM90 °FPassing clouds.3 mph71%29.83 "HgN/A
9:00 AM84 °FPassing clouds.6 mph89%29.84 "HgN/A
8:00 AM82 °FFog.3 mph89%29.84 "Hg4 mi
7:00 AM79 °FFog.7 mph100%29.81 "Hg2 mi
6:00 AM79 °FFog.2 mph94%29.78 "Hg2 mi
5:00 AM81 °FPassing clouds.5 mph94%29.77 "HgN/A
4:00 AM81 °FClear.2 mph89%29.76 "Hg10 mi
3:00 AM81 °FClear.6 mph94%29.75 "Hg10 mi
2:00 AM81 °FClear.6 mph94%29.77 "Hg10 mi
1:00 AM81 °FClear.5 mph94%29.79 "Hg10 mi
12:00 AM82 °FClear.7 mph84%29.80 "Hg10 mi
11:00 PM
Nov 24
82 °FClear.6 mph89%29.82 "Hg10 mi
10:00 PM82 °FClear.10 mph89%29.82 "Hg10 mi
Weather by CustomWeather, © 2014

See weather overviewHow to use our weather pages